• In Latvia
  • List of Countries
  • For 7 days
  • Water Temperature
  • Satellite Maps
  • Weather Map
  • Weather Widgets
  • user-avatar
    Login

    Hourly Weather Pokrovskiy (Krasnoarmijsk)

    Today, 23 October, Tuesday

    Time Temperature Precipitation Wind Pressure Humidity
    00:00 +10°C° 0 mm 2 mps 745 mmHg 88%
    01:00 +10°C° 0 mm 3 mps 744 mmHg 88%
    02:00 +9°C° 0 mm 3 mps 744 mmHg 89%
    03:00 +8°C° 0 mm 3 mps 744 mmHg 90%
    04:00 +8°C° 0 mm 3 mps 744 mmHg 90%
    05:00 +7°C° 0 mm 3 mps 743 mmHg 91%
    06:00 +8°C° 0 mm 3 mps 744 mmHg 87%
    07:00 +8°C° 0 mm 3 mps 744 mmHg 83%
    08:00 +8°C° 0 mm 3 mps 744 mmHg 79%
    09:00 +10°C° 0 mm 4 mps 744 mmHg 69%
    10:00 +11°C° 0 mm 4 mps 743 mmHg 59%
    11:00 +12°C° 0 mm 5 mps 743 mmHg 50%
    12:00 +13°C° 0 mm 5 mps 743 mmHg 47%
    13:00 +13°C° 0 mm 5 mps 742 mmHg 44%
    14:00 +13°C° 0 mm 5 mps 742 mmHg 41%
    15:00 +12°C° 0 mm 4 mps 741 mmHg 45%
    16:00 +12°C° 0 mm 4 mps 741 mmHg 49%
    17:00 +11°C° 0 mm 3 mps 740 mmHg 53%
    18:00 +10°C° 0 mm 3 mps 740 mmHg 54%
    19:00 +10°C° 0 mm 4 mps 740 mmHg 56%
    20:00 +8°C° 0 mm 4 mps 740 mmHg 58%
    21:00 +8°C° 0 mm 4 mps 739 mmHg 58%
    22:00 +8°C° 0 mm 4 mps 739 mmHg 57%
    23:00 +8°C° 0 mm 4 mps 738 mmHg 57%

    Tomorrow, 24 October, Wednesday

    Time Temperature Precipitation Wind Pressure Humidity
    00:00 +8°C° 0 mm 5 mps 738 mmHg 58%
    01:00 +8°C° 0 mm 5 mps 737 mmHg 59%
    02:00 +8°C° 0 mm 5 mps 736 mmHg 60%
    03:00 +8°C° 0.1 mm 6 mps 735 mmHg 62%
    04:00 +8°C° 0.1 mm 7 mps 734 mmHg 64%
    05:00 +9°C° 0.1 mm 8 mps 733 mmHg 65%
    06:00 +9°C° 0.5 mm 8 mps 732 mmHg 70%
    07:00 +9°C° 0.5 mm 8 mps 732 mmHg 74%
    08:00 +10°C° 0.5 mm 8 mps 731 mmHg 78%
    09:00 +10°C° 0.6 mm 9 mps 731 mmHg 75%
    10:00 +10°C° 0.6 mm 9 mps 730 mmHg 73%
    11:00 +11°C° 0.6 mm 9 mps 729 mmHg 71%
    12:00 +11°C° 0.4 mm 9 mps 729 mmHg 71%
    13:00 +11°C° 0.4 mm 9 mps 728 mmHg 71%
    14:00 +11°C° 0.4 mm 8 mps 727 mmHg 71%
    15:00 +11°C° 0.4 mm 8 mps 726 mmHg 74%
    16:00 +10°C° 0.4 mm 7 mps 726 mmHg 76%
    17:00 +10°C° 0.4 mm 7 mps 725 mmHg 79%
    18:00 +10°C° 0.7 mm 7 mps 724 mmHg 80%
    19:00 +10°C° 0.7 mm 7 mps 724 mmHg 81%
    20:00 +9°C° 0.7 mm 7 mps 723 mmHg 83%
    21:00 +9°C° 0.4 mm 7 mps 723 mmHg 81%
    22:00 +9°C° 0.4 mm 7 mps 723 mmHg 79%
    23:00 +9°C° 0.4 mm 7 mps 723 mmHg 78%

    Day after tomorrow, 25 October, Thursday

    Time Temperature Precipitation Wind Pressure Humidity
    00:00 +8°C° 0 mm 7 mps 723 mmHg 75%
    01:00 +6°C° 0 mm 7 mps 724 mmHg 72%
    02:00 +5°C° 0 mm 6 mps 724 mmHg 69%
    03:00 +4°C° 0 mm 6 mps 725 mmHg 71%
    04:00 +4°C° 0 mm 7 mps 725 mmHg 73%
    05:00 +3°C° 0 mm 7 mps 726 mmHg 74%
    06:00 +3°C° 0 mm 7 mps 726 mmHg 72%
    07:00 +4°C° 0 mm 7 mps 727 mmHg 69%
    08:00 +4°C° 0 mm 7 mps 727 mmHg 66%
    09:00 +5°C° 0 mm 7 mps 728 mmHg 62%
    10:00 +5°C° 0 mm 7 mps 728 mmHg 58%
    11:00 +6°C° 0 mm 7 mps 729 mmHg 53%
    12:00 +6°C° 0 mm 7 mps 729 mmHg 53%
    13:00 +8°C° 0 mm 6 mps 729 mmHg 54%
    14:00 +8°C° 0 mm 6 mps 730 mmHg 54%
    15:00 +7°C° 0 mm 5 mps 730 mmHg 57%
    16:00 +6°C° 0 mm 5 mps 730 mmHg 60%
    17:00 +6°C° 0 mm 4 mps 731 mmHg 63%
    18:00 +5°C° 0 mm 4 mps 731 mmHg 66%
    19:00 +5°C° 0 mm 4 mps 732 mmHg 68%
    20:00 +4°C° 0 mm 4 mps 732 mmHg 70%
    21:00 +4°C° 0 mm 4 mps 732 mmHg 73%
    22:00 +4°C° 0 mm 4 mps 732 mmHg 75%
    23:00 +4°C° 0 mm 4 mps 733 mmHg 78%

    26 October, Friday

    Time Temperature Precipitation Wind Pressure Humidity
    00:00 +3°C° 0 mm 4 mps 733 mmHg 78%
    01:00 +3°C° 0 mm 4 mps 733 mmHg 78%
    02:00 +3°C° 0 mm 4 mps 734 mmHg 78%
    03:00 +2°C° 0 mm 3 mps 734 mmHg 78%
    04:00 +2°C° 0 mm 3 mps 734 mmHg 78%
    05:00 +2°C° 0 mm 3 mps 735 mmHg 79%
    06:00 +3°C° 0 mm 2 mps 735 mmHg 76%
    07:00 +4°C° 0 mm 2 mps 735 mmHg 73%
    08:00 +5°C° 0 mm 1 mps 736 mmHg 70%
    09:00 +6°C° 0 mm 1 mps 736 mmHg 64%
    10:00 +7°C° 0 mm 1 mps 737 mmHg 59%
    11:00 +8°C° 0 mm 1 mps 737 mmHg 54%
    12:00 +8°C° 0 mm 2 mps 737 mmHg 52%
    13:00 +8°C° 0 mm 2 mps 738 mmHg 49%
    14:00 +9°C° 0 mm 3 mps 738 mmHg 47%
    15:00 +8°C° 0 mm 3 mps 739 mmHg 49%
    16:00 +8°C° 0 mm 3 mps 740 mmHg 50%
    17:00 +7°C° 0 mm 3 mps 740 mmHg 52%
    18:00 +7°C° 0 mm 3 mps 741 mmHg 55%
    19:00 +5°C° 0 mm 3 mps 742 mmHg 57%
    20:00 +4°C° 0 mm 3 mps 742 mmHg 60%
    21:00 +4°C° 0 mm 3 mps 743 mmHg 62%
    22:00 +4°C° 0 mm 3 mps 744 mmHg 65%
    23:00 +3°C° 0 mm 3 mps 744 mmHg 67%

    27 October, Saturday

    Time Temperature Precipitation Wind Pressure Humidity
    00:00 +3°C° 0 mm 3 mps 745 mmHg 68%
    01:00 +3°C° 0 mm 3 mps 745 mmHg 69%
    02:00 +3°C° 0 mm 3 mps 745 mmHg 70%
    03:00 +3°C° 0 mm 4 mps 746 mmHg 72%
    04:00 +3°C° 0 mm 4 mps 746 mmHg 74%
    05:00 +1°C° 0 mm 4 mps 747 mmHg 76%
    06:00 +3°C° 0 mm 4 mps 747 mmHg 73%
    07:00 +4°C° 0 mm 4 mps 747 mmHg 70%
    08:00 +5°C° 0 mm 5 mps 748 mmHg 67%
    09:00 +6°C° 0 mm 5 mps 748 mmHg 61%
    10:00 +8°C° 0 mm 5 mps 748 mmHg 55%
    11:00 +10°C° 0 mm 5 mps 748 mmHg 49%
    12:00 +10°C° 0 mm 5 mps 748 mmHg 48%
    13:00 +11°C° 0 mm 6 mps 748 mmHg 47%
    14:00 +13°C° 0 mm 6 mps 747 mmHg 46%
    15:00 +11°C° 0 mm 6 mps 747 mmHg 51%
    16:00 +10°C° 0 mm 6 mps 747 mmHg 55%
    17:00 +10°C° 0 mm 6 mps 747 mmHg 60%
    18:00 +10°C° 0 mm 7 mps 747 mmHg 61%
    19:00 +10°C° 0 mm 7 mps 747 mmHg 62%
    20:00 +10°C° 0 mm 7 mps 747 mmHg 63%
    21:00 +10°C° 0 mm 7 mps 747 mmHg 66%
    22:00 +10°C° 0 mm 6 mps 747 mmHg 70%
    23:00 +9°C° 0 mm 6 mps 747 mmHg 74%

    28 October, Sunday

    Time Temperature Precipitation Wind Pressure Humidity
    00:00 +9°C° 0 mm 6 mps 747 mmHg 77%
    01:00 +9°C° 0 mm 6 mps 747 mmHg 80%
    02:00 +9°C° 0 mm 6 mps 747 mmHg 83%
    03:00 +9°C° 0 mm 6 mps 747 mmHg 85%
    04:00 +9°C° 0 mm 6 mps 747 mmHg 87%
    05:00 +10°C° 0 mm 6 mps 746 mmHg 89%
    06:00 +10°C° 0 mm 7 mps 746 mmHg 86%
    07:00 +11°C° 0 mm 8 mps 747 mmHg 83%
    08:00 +12°C° 0 mm 8 mps 747 mmHg 80%
    09:00 +13°C° 0 mm 8 mps 747 mmHg 72%
    10:00 +16°C° 0 mm 9 mps 747 mmHg 64%
    11:00 +18°C° 0 mm 9 mps 747 mmHg 56%
    12:00 +18°C° 0 mm 9 mps 746 mmHg 55%
    13:00 +19°C° 0 mm 9 mps 746 mmHg 53%
    14:00 +19°C° 0 mm 9 mps 745 mmHg 51%
    15:00 +18°C° 0 mm 9 mps 745 mmHg 56%
    16:00 +17°C° 0 mm 8 mps 745 mmHg 60%
    17:00 +16°C° 0 mm 8 mps 745 mmHg 65%
    18:00 +15°C° 0 mm 7 mps 745 mmHg 67%
    19:00 +15°C° 0 mm 7 mps 745 mmHg 69%
    20:00 +15°C° 0 mm 7 mps 745 mmHg 71%
    21:00 +14°C° 0 mm 7 mps 745 mmHg 72%
    22:00 +14°C° 0 mm 7 mps 746 mmHg 73%
    23:00 +14°C° 0 mm 6 mps 746 mmHg 74%

    29 October, Monday

    Time Temperature Precipitation Wind Pressure Humidity
    00:00 +14°C° 0 mm 6 mps 746 mmHg 75%
    01:00 +13°C° 0 mm 6 mps 746 mmHg 75%
    02:00 +13°C° 0 mm 6 mps 746 mmHg 76%
    03:00 +13°C° 0 mm 5 mps 746 mmHg 77%
    04:00 +13°C° 0 mm 5 mps 746 mmHg 78%
    05:00 +12°C° 0 mm 5 mps 746 mmHg 79%
    06:00 +13°C° 0 mm 5 mps 746 mmHg 76%
    07:00 +13°C° 0 mm 5 mps 747 mmHg 74%
    08:00 +14°C° 0 mm 5 mps 747 mmHg 71%
    09:00 +15°C° 0 mm 5 mps 747 mmHg 65%
    10:00 +17°C° 0 mm 5 mps 747 mmHg 59%
    11:00 +20°C° 0 mm 5 mps 748 mmHg 53%
    12:00 +20°C° 0 mm 5 mps 747 mmHg 51%
    13:00 +21°C° 0 mm 5 mps 747 mmHg 48%
    14:00 +21°C° 0 mm 5 mps 747 mmHg 46%
    15:00 +20°C° 0 mm 4 mps 747 mmHg 52%
    16:00 +18°C° 0 mm 4 mps 747 mmHg 59%
    17:00 +17°C° 0 mm 3 mps 747 mmHg 65%
    18:00 +16°C° 0 mm 3 mps 747 mmHg 67%
    19:00 +14°C° 0 mm 3 mps 748 mmHg 69%
    20:00 +13°C° 0 mm 3 mps 748 mmHg 72%
    21:00 +13°C° 0 mm 3 mps 748 mmHg 67%
    22:00 +12°C° 0 mm 3 mps 748 mmHg 63%
    23:00 +12°C° 0 mm 3 mps 748 mmHg 59%
    Show more